Location: Kampung Segan
(3.1399°N, 113.1002°E)
Time: 18:54:11
(UTC+00:00)

H-2A R/B - Pass Details

Date: 05 August 2024
Orbit: 731 x 832 km, 98.2° (Epoch: 11 September)

Event Time Altitude Azimuth Distance (km) Brightness Sun altitude
Rises 19:45:02 0° 28° (NNE) 3,195 5.8 -38.8°
Reaches altitude 10° 19:47:28 10° 36° (NE) 2,287 5.0 -38.2°
Enters shadow 19:49:58 25° 58° (ENE) 1,495 3.9 -37.6°
